Regional Weather Roundup
Issued by NWS Newport/Morehead, NC

Current Version | Previous Version | Text Only | Print | Product List | Glossary Off
Versions: 1 2 3 4 5 6 7 8 9 10 11 12 13 14 15 16 17 18 19 20 21 22 23 24 25 26 27 28 29 30 31 32 33 34 35 36 37 38 39 40 41 42 43 44 45 46 47 48 49 50
000 ASUS42 KMHX 241713 RWRMHX WEATHER ROUNDUP FOR EASTERN NORTH CAROLINA NATIONAL WEATHER SERVICE NEWPORT/MOREHEAD CITY NC 100 PM EDT SAT JUN 24 2017 NOTE: "FAIR" INDICATES FEW OR NO CLOUDS BELOW 12,000 FEET WITH NO SIGNIFICANT WEATHER AND/OR OBSTRUCTIONS TO VISIBILITY NCZ015>017-031-032-045>047-102-103-241800- NORTH COAST CITY SKY/WX TMP DP RH WIND PRES REMARKS EDENTON PTSUNNY 89 71 56 W8 29.93S ELIZABETH CITY CLOUDY 87 72 60 W9 29.92S KITTY HAWK SUNNY 86 69 56 W8 29.92S MANTEO PTSUNNY 87 72 61 W8 29.93S $$ NCZ045>047-081-094-103-104-241800- CENTRAL COAST CITY SKY/WX TMP DP RH WIND PRES REMARKS FRISCO SUNNY 84 75 74 SW17G25 29.96S $$ NCZ095-097-098-100-101-241800- SOUTHERN COAST CITY SKY/WX TMP DP RH WIND PRES REMARKS BEAUFORT SUNNY 86 80 82 SW25 29.96F HX 101 CEDAR ISLAND NOT AVBL JACKSONVILLE NOT AVBL PINEY ISLAND MOSUNNY N/A N/A N/A SW10 29.95S WILMINGTON MOSUNNY 91 71 51 SW17G25 29.97S $$ NCZ011>013-027>030-043-044-078>080-089-090>093-098-241800- COASTAL PLAIN CITY SKY/WX TMP DP RH WIND PRES REMARKS AHOSKIE N/A 85 72 66 CALM 29.93S CLINTON MOSUNNY 87 76 69 SW10 29.95F ELIZABETHTOWN NOT AVBL GOLDSBORO MOSUNNY 90 74 59 W7 29.93S GREENVILLE SUNNY 90 70 51 W8 29.96S HAVELOCK MOSUNNY 88 74 63 SW15G21 29.96S KENANSVILLE PTSUNNY 90 75 62 SW6 29.95F HX 100 KINSTON MOSUNNY 90 73 58 SW9 29.95S NEW BERN CLOUDY 87 75 67 W9 29.96S RICHLANDS PTSUNNY 89 77 67 SW6 29.96S HX 101 ROCKY MOUNT SUNNY 88 71 57 W7 29.94S WASHINGTON SUNNY N/A N/A N/A SW12 29.94S WHITEVILLE MOSUNNY 90 73 58 SW8 29.97F $$ AMZ130-135-150-152-154-156-158-170-250-252-270-ANZ085-086-088-633-658-670-241800- MARINE OBSERVATIONS STATION/POSITION TIME TEMP WIND PRES WAVE SWELL AIR SEA DIR/SP/G HT/PER HT/PER (UTC) (F) (DEG/KT/KT) (MB) (FT/S) (FT/S) CHESAPEAKE LIGHT NOT AVBL 64 E VA BEACH 1650 74 71 240/ 6/ 6 1013.8 6/ 7 7/ 7 DUCK 1648 84 60 240/ 13/ 17 1012.7 2 E DUCK NOT AVBL OREGON INLET 1648 240/ 9/ 10 N/A 13E OREGON INLT 1648 74 N/A 4/ 7 3/ 7 HATTERAS CG 1648 81 78 230/ 13/ 17 1014.3 DIAMOND BUOY 1650 80 80 240/ 21/ 23 1014.5 8/ 8 CAPE LOOKOUT 1700 83 220/ 14/ 21 1014.5 BEAUFORT LAB 1648 82 78 210/ 14/ 22 1014.0 30 SE NEW RVR IN 1608 80 80 240/ 19/ 23 1015.8 30 SE NEW RVR IN 1643 80 N/A 7/ 7 27 SE WRIGHTSVLE 1608 79 80 220/ 17/ 23 1015.6 5 SE WRIGHTSVLE 1608 80 78 200/ 12/ 19 1015.5 225 S CAPE HAT 1550 81 80 210/ 16/ 17 1019.7 4/ 5 2/ 9 41 SE CHARLESTON 1650 81 81 220/ 14/ 17 1017.3 5/ 6 2/ 9 $$

USA.gov is the U.S. government's official web portal to all federal, state and local government web resources and services.